METEOR 1-17 DEB, 57538

Orbit data source: Space-Track

METEOR 1-17 DEB, 57538 is space debris in LEO originally from a Commonwealth of Independent States-origin launch on Wed, 24 Apr 1974 UTC launched from the Plesetsk Missile And Space Complex (PKMTR). Debris objects in space refer to the collection of defunct objects orbiting the Earth. Examples of debris include non-operational satellites, rocket bodies, and fragments generated from explosions, collisions, or faulty payload assembly.

Loading next visibility...
Identifier
57538, 1974-025D
Orbit
LEO
Country
Flag of CISCIS
Related business
Manufacturer
VNIIEM
Mission
Spacecraft
Bus & Motor
Unknown
Mass
Unknown
Launch date (UTC)
1974-04-24 (52 years ago)
Launch vehicle
Unknown
Launch site
Plesetsk Missile And Space Complex (PKMTR)
Object type
Payload
Rocket body
Debris
Shape & HBR
Unknown shape, 0.1 m
Radar Cross Section
Small (<0.1 m²)

Expand to show TLE details & history
Last TLE update: 2 days ago

TLE from 2 days ago
0 METEOR 1-17 DEB
1 57538U 74025D   26171.34557259  .00003452  00000-0  14529-2 0  9990
2 57538  81.1919 278.2512 0019902 223.0749 136.8873 14.25499049151183
Epoch: 2026-06-20T08:17Z
TLE epoch observation values (Epoch: 2026-06-20T08:17:37.471Z)
Latitude
-0.0001°
Longitude
-114.71647°
Altitude
820.188 km
Speed
7.438 km/s
True Right ascension
18h 33m 00s
True Declination
0° 00' 00"
Sunlit
Object was in full shadow at epoch
Visualization orbit readout
Latitude
Unknown
Longitude
Unknown
Altitude
Unknown
Speed
Unknown
Apparent Right ascension
Unknown
Apparent Declination
Unknown
Sunlit
N/A
Visualization observer readout
Local Sidereal Time
21:39:42
Azimuth
Unknown
Elevation
Unknown
Doppler factor
Unknown
Orbital elements
Apogee altitude
818.265 km
Perigee altitude
789.677 km
Semi-major axis
7,182.108 km
Eccentricity
0.00199
Inclination
81.1919°
RAAN
278.2512°
Arg. of periapsis
223.0749°
True anomaly
137.04288°
Mean anomaly
136.8873°
Eccentric anomaly
136.96512°
Mean motion
3.56587 °/min
Orbital period
100.96 mins
BSTAR
0.0014529
Loading maneuver chart data...
Computing Atmospheric mass density...
Loading historical data...
Loading historical data...
Loading historical data...
Loading historical data...
Loading historical data...
Loading historical data...
Loading historical data...

Documentation

Showing up to 5 results
|